[Iaude] MPEC W69: 2014 ME19 [a=1.39,e=0.13,i=21.2,H=20.7]

mpec at si.edu mpec at si.edu
Thu Nov 24 09:53:38 EST 2016


M.P.E.C. 2016-W69                                Issued 2016 Nov. 24, 14:47 UT
 
     The Minor Planet Electronic Circulars contain information on unusual
         minor planets and routine data on comets.  They are published
    on behalf of Division F of the International Astronomical Union by the
          Minor Planet Center, Smithsonian Astrophysical Observatory,
                          Cambridge, MA 02138, U.S.A.

             Prepared using the Tamkin Foundation Computer Network

                              MPC at CFA.HARVARD.EDU
            URL http://www.minorplanetcenter.net/    ISSN 1523-6714


                                   2014 ME19
 
                           Revision to MPEC 2014-M60
 
Additional Observations:
     K14M19E  C2016 11 22.37337 05 52 56.60 -26 14 21.5          20.3 RoEW069926
     K14M19E  C2016 11 22.38703 05 52 55.85 -26 14 10.7          20.1 RoEW069926
     K14M19E  C2016 11 22.40068 05 52 55.03 -26 13 59.1          20.1 RoEW069926
     K14M19E  C2016 11 24.36310 05 51 14.31 -25 44 25.5          20.5 RoEW069926
     K14M19E  C2016 11 24.37777 05 51 13.34 -25 44 10.9          20.5 RoEW069926
     K14M19E  C2016 11 24.39059 05 51 12.53 -25 43 58.6          20.4 RoEW069926
     K14M19E  C2016 11 24.40032 05 51 11.90 -25 43 49.3          20.9 RoEW069926
     K14M19E  C2016 11 24.41311 05 51 11.05 -25 43 35.9          20.6 RoEW069926
     K14M19E  C2016 11 24.42596 05 51 10.21 -25 43 22.6          20.7 RoEW069926
 
Observer details:
926 Tenagra II Observatory.  Observers M. Schwartz, P. R. Holvorcem.  Measurer
    M. Schwartz.  0.81-m f/7 Ritchey-Chretien + CCD.
 
First and last observations above in comparison with prediction:
Residuals in seconds of arc (or two decimals in degrees), reference and Delta-T
161122 926 0.16- 0.08-    161124 926 0.17- 0.08-    MPO298945   +0.049 day
 
Orbital elements:
2014 ME19                                                Earth MOID = 0.2260 AU
Epoch 2017 Feb. 16.0 TT = JDT 2457800.5                 MPC
M  21.14369              (2000.0)            P               Q
n   0.60024044     Peri.  359.64822     -0.21895269     -0.90973262
a   1.3918290      Node   102.97548     +0.89610159     -0.33053814
e   0.1313643      Incl.   21.22387     +0.38608505     +0.25125902
P   1.64           H   20.7           G   0.15           U   4
Residuals in seconds of arc
140622 G96  0.4+  0.2-    140624 I52  0.8-  0.3-    140628 G96  0.0   0.2-
140622 G96  0.3+  0.4-    140624 I52  0.5+  0.0     140706 474  0.5-  0.3-
140624 I52  0.1+  0.1-    140624 I52  0.2-  0.0     140706 474  0.1+  0.5+
140624 I52  1.0+  1.0+    140624 I52  0.2+  0.2+    161122 926  0.2-  0.3+
140624 I52  0.5+  0.1+    140624 291  0.1-  0.1-    161122 926  0.2+  0.1-
140624 I52  0.4-  0.0     140624 291  0.1-  0.0     161122 926  0.4-  0.2+
140624 I52  1.4+  0.3+    140624 291  0.4-  0.0     161124 926  0.1+  0.0
140624 I52  0.8-  0.6-    140625 G96  0.3-  0.1-    161124 926  0.1-  0.2+
140624 I52 (1.9-  0.2-)   140625 G96  0.1-  0.1-    161124 926  0.2+  0.2-
140624 I52  0.1+  0.1+    140625 G96  0.4-  0.2-    161124 926  0.3+  0.6-
140624 I52  0.4+  0.7+    140628 G96  0.5-  0.1+    161124 926  0.0   0.0
140624 I52  0.1-  0.1+    140628 G96  0.0   0.1-    161124 926  0.1-  0.4+

Ephemeris:
2014 ME19                a,e,i = 1.39, 0.13, 21                  q = 1.2090
Date    TT    R. A. (2000) Decl.     Delta      r     Elong.  Phase     V
2016 10 25    05 50 29.7 -26 48 47   0.5230  1.2825   111.6    46.1    21.6
...
2016 11 09    05 57 39.2 -27 41 26   0.4436  1.2590   117.6    44.2    21.1
...
2016 11 17    05 56 13.1 -27 10 19   0.4016  1.2479   121.8    42.3    20.8
...
2016 11 23    05 52 26.1 -26 05 12   0.3710  1.2404   125.5    40.4    20.6
2016 11 24    05 51 34.1 -25 49 58   0.3660  1.2392   126.2    40.0    20.6
2016 11 25    05 50 38.1 -25 33 21   0.3610  1.2380   126.9    39.6    20.5
...
2016 12 01    05 43 39.0 -23 20 30   0.3326  1.2314   131.4    36.9    20.3
...
2016 12 09    05 31 03.3 -18 37 30   0.2992  1.2238   138.0    32.6    19.9
...
2016 12 24    05 02 01.8 -03 24 46   0.2610  1.2136   148.4    25.1    19.4

A. U. Tomatic                (C) Copyright 2016 MPC           M.P.E.C. 2016-W69




More information about the Iaude mailing list